When you browse on this site, cookies collect data to enhance your experience and personalize the content and advertising you see.
Visit our Privacy Policy to learn more. By continuing to use the site, you agree to this use of cookies and data.
  • în România
  • Lista ţărilor
  • Pe 7 zile
  • Temperatura apei
  • Meteo pe hartă
  • Widget-uri
  • user-avatar
    Intrare

    Meteo pe oră la Beverly

    Astăzi, 5 Iunie, Vineri

    Timp Temperatura Precipitaţii Vânt Presiune Umiditate
    00:00 +9°C° 0 mm 2 m/s 746 mmHg 96%
    01:00 +8°C° 0.6 mm 2 m/s 745 mmHg 95%
    02:00 +8°C° 0.6 mm 2 m/s 745 mmHg 94%
    03:00 +8°C° 0.6 mm 2 m/s 744 mmHg 93%
    04:00 +8°C° 1.1 mm 3 m/s 744 mmHg 93%
    05:00 +7°C° 1.1 mm 5 m/s 744 mmHg 92%
    06:00 +5°C° 0 mm 6 m/s 744 mmHg 92%
    07:00 +7°C° 0.4 mm 6 m/s 744 mmHg 86%
    08:00 +8°C° 0.4 mm 5 m/s 744 mmHg 80%
    09:00 +9°C° 0.4 mm 5 m/s 744 mmHg 74%
    10:00 +10°C° 0.3 mm 5 m/s 744 mmHg 71%
    11:00 +10°C° 0.3 mm 5 m/s 744 mmHg 67%
    12:00 +12°C° 0.3 mm 5 m/s 744 mmHg 64%
    13:00 +12°C° 0.6 mm 5 m/s 744 mmHg 66%
    14:00 +12°C° 0.6 mm 5 m/s 744 mmHg 69%
    15:00 +12°C° 0.6 mm 5 m/s 744 mmHg 71%
    16:00 +10°C° 0.5 mm 5 m/s 744 mmHg 74%
    17:00 +10°C° 0.5 mm 6 m/s 744 mmHg 76%
    18:00 +10°C° 0.5 mm 7 m/s 743 mmHg 78%
    19:00 +8°C° 0.1 mm 7 m/s 743 mmHg 78%
    20:00 +6°C° 0.1 mm 7 m/s 743 mmHg 78%
    21:00 +5°C° 0.1 mm 7 m/s 743 mmHg 78%
    22:00 +5°C° 0 mm 7 m/s 743 mmHg 78%
    23:00 +4°C° 0 mm 8 m/s 742 mmHg 79%

    Mâine, 6 Iunie, Sâmbătă

    Timp Temperatura Precipitaţii Vânt Presiune Umiditate
    00:00 +4°C° 0 mm 8 m/s 742 mmHg 80%
    01:00 +5°C° 1 mm 8 m/s 741 mmHg 84%
    02:00 +5°C° 1 mm 8 m/s 741 mmHg 88%
    03:00 +5°C° 1 mm 9 m/s 740 mmHg 91%
    04:00 +6°C° 0.8 mm 8 m/s 740 mmHg 90%
    05:00 +8°C° 0.8 mm 7 m/s 739 mmHg 89%
    06:00 +8°C° 0.8 mm 7 m/s 739 mmHg 88%
    07:00 +9°C° 0.1 mm 8 m/s 739 mmHg 86%
    08:00 +8°C° 0.1 mm 9 m/s 739 mmHg 83%
    09:00 +9°C° 0.1 mm 10 m/s 740 mmHg 80%
    10:00 +9°C° 0.7 mm 11 m/s 740 mmHg 81%
    11:00 +9°C° 0.7 mm 11 m/s 741 mmHg 82%
    12:00 +9°C° 0.7 mm 11 m/s 741 mmHg 82%
    13:00 +11°C° 0.6 mm 11 m/s 742 mmHg 82%
    14:00 +11°C° 0.6 mm 10 m/s 743 mmHg 81%
    15:00 +12°C° 0.6 mm 9 m/s 743 mmHg 80%
    16:00 +12°C° 0.3 mm 8 m/s 744 mmHg 79%
    17:00 +11°C° 0.3 mm 8 m/s 745 mmHg 79%
    18:00 +11°C° 0.3 mm 7 m/s 745 mmHg 78%
    19:00 +10°C° 0 mm 6 m/s 746 mmHg 82%
    20:00 +9°C° 0 mm 5 m/s 747 mmHg 86%
    21:00 +7°C° 0 mm 5 m/s 748 mmHg 90%
    22:00 +7°C° 0 mm 4 m/s 749 mmHg 91%
    23:00 +6°C° 0 mm 4 m/s 749 mmHg 92%

    Poimâine, 7 Iunie, Duminică

    Timp Temperatura Precipitaţii Vânt Presiune Umiditate
    00:00 +6°C° 0 mm 4 m/s 749 mmHg 92%
    01:00 +6°C° 0 mm 4 m/s 750 mmHg 91%
    02:00 +7°C° 0 mm 4 m/s 750 mmHg 89%
    03:00 +7°C° 0 mm 4 m/s 750 mmHg 88%
    04:00 +8°C° 0.1 mm 3 m/s 751 mmHg 88%
    05:00 +9°C° 0.1 mm 3 m/s 751 mmHg 89%
    06:00 +9°C° 0.1 mm 3 m/s 751 mmHg 89%
    07:00 +11°C° 0 mm 3 m/s 752 mmHg 86%
    08:00 +12°C° 0 mm 3 m/s 753 mmHg 83%
    09:00 +13°C° 0 mm 3 m/s 753 mmHg 79%
    10:00 +13°C° 0.2 mm 4 m/s 754 mmHg 82%
    11:00 +13°C° 0.2 mm 4 m/s 754 mmHg 84%
    12:00 +13°C° 0.2 mm 4 m/s 755 mmHg 87%
    13:00 +13°C° 0.4 mm 5 m/s 755 mmHg 87%
    14:00 +13°C° 0.4 mm 6 m/s 756 mmHg 87%
    15:00 +11°C° 0.4 mm 7 m/s 756 mmHg 88%
    16:00 +11°C° 0.1 mm 7 m/s 756 mmHg 88%
    17:00 +10°C° 0.1 mm 7 m/s 757 mmHg 88%
    18:00 +10°C° 0.1 mm 6 m/s 757 mmHg 89%
    19:00 +10°C° 0 mm 6 m/s 758 mmHg 88%
    20:00 +9°C° 0 mm 6 m/s 758 mmHg 87%
    21:00 +9°C° 0 mm 5 m/s 759 mmHg 86%
    22:00 +9°C° 0 mm 5 m/s 759 mmHg 85%
    23:00 +9°C° 0 mm 5 m/s 760 mmHg 85%

    8 Iunie, Luni

    Timp Temperatura Precipitaţii Vânt Presiune Umiditate
    00:00 +9°C° 0 mm 5 m/s 760 mmHg 84%
    01:00 +8°C° 0 mm 5 m/s 760 mmHg 84%
    02:00 +8°C° 0 mm 5 m/s 760 mmHg 85%
    03:00 +8°C° 0 mm 5 m/s 760 mmHg 85%
    04:00 +8°C° 0 mm 6 m/s 761 mmHg 85%
    05:00 +8°C° 0 mm 6 m/s 761 mmHg 84%
    06:00 +9°C° 0 mm 6 m/s 761 mmHg 83%
    07:00 +9°C° 0 mm 6 m/s 762 mmHg 79%
    08:00 +10°C° 0 mm 6 m/s 762 mmHg 76%
    09:00 +11°C° 0 mm 6 m/s 763 mmHg 72%
    10:00 +11°C° 0.1 mm 6 m/s 763 mmHg 73%
    11:00 +11°C° 0.1 mm 6 m/s 763 mmHg 73%
    12:00 +10°C° 0.1 mm 6 m/s 763 mmHg 74%
    13:00 +11°C° 0 mm 6 m/s 763 mmHg 72%
    14:00 +12°C° 0 mm 5 m/s 763 mmHg 70%
    15:00 +12°C° 0 mm 5 m/s 764 mmHg 67%
    16:00 +12°C° 0 mm 5 m/s 764 mmHg 69%
    17:00 +10°C° 0 mm 5 m/s 764 mmHg 71%
    18:00 +11°C° 0 mm 4 m/s 764 mmHg 73%
    19:00 +10°C° 0 mm 4 m/s 764 mmHg 76%
    20:00 +8°C° 0 mm 4 m/s 765 mmHg 78%
    21:00 +8°C° 0 mm 3 m/s 765 mmHg 81%
    22:00 +8°C° 0 mm 3 m/s 765 mmHg 82%
    23:00 +7°C° 0 mm 3 m/s 765 mmHg 82%

    9 Iunie, Marţi

    Timp Temperatura Precipitaţii Vânt Presiune Umiditate
    00:00 +7°C° 0 mm 3 m/s 765 mmHg 83%
    01:00 +5°C° 0 mm 3 m/s 765 mmHg 84%
    02:00 +5°C° 0 mm 3 m/s 765 mmHg 85%
    03:00 +5°C° 0 mm 3 m/s 765 mmHg 86%
    04:00 +7°C° 0 mm 3 m/s 765 mmHg 84%
    05:00 +7°C° 0 mm 3 m/s 765 mmHg 82%
    06:00 +8°C° 0 mm 3 m/s 766 mmHg 79%
    07:00 +9°C° 0 mm 3 m/s 766 mmHg 74%
    08:00 +11°C° 0 mm 3 m/s 766 mmHg 68%
    09:00 +12°C° 0 mm 3 m/s 766 mmHg 63%
    10:00 +13°C° 0 mm 2 m/s 766 mmHg 63%
    11:00 +13°C° 0 mm 2 m/s 766 mmHg 64%
    12:00 +13°C° 0 mm 2 m/s 766 mmHg 64%
    13:00 +14°C° 0 mm 2 m/s 766 mmHg 64%
    14:00 +14°C° 0 mm 1 m/s 766 mmHg 65%
    15:00 +14°C° 0 mm 1 m/s 766 mmHg 65%
    16:00 +14°C° 0 mm 1 m/s 766 mmHg 66%
    17:00 +14°C° 0 mm 1 m/s 766 mmHg 67%
    18:00 +14°C° 0 mm 1 m/s 766 mmHg 68%
    19:00 +13°C° 0 mm 1 m/s 766 mmHg 74%
    20:00 +11°C° 0 mm 1 m/s 767 mmHg 79%
    21:00 +8°C° 0 mm 2 m/s 767 mmHg 85%
    22:00 +8°C° 0 mm 2 m/s 767 mmHg 85%
    23:00 +8°C° 0 mm 2 m/s 767 mmHg 85%

    10 Iunie, Miercuri

    Timp Temperatura Precipitaţii Vânt Presiune Umiditate
    00:00 +8°C° 0 mm 2 m/s 767 mmHg 84%
    01:00 +8°C° 0 mm 2 m/s 767 mmHg 85%
    02:00 +8°C° 0 mm 2 m/s 767 mmHg 85%
    03:00 +8°C° 0 mm 2 m/s 767 mmHg 85%
    04:00 +9°C° 0 mm 2 m/s 767 mmHg 84%
    05:00 +9°C° 0 mm 2 m/s 767 mmHg 83%
    06:00 +11°C° 0 mm 1 m/s 767 mmHg 82%
    07:00 +13°C° 0 mm 1 m/s 768 mmHg 76%
    08:00 +14°C° 0 mm 1 m/s 768 mmHg 70%
    09:00 +16°C° 0 mm 1 m/s 768 mmHg 64%
    10:00 +18°C° 0 mm 1 m/s 768 mmHg 62%
    11:00 +19°C° 0 mm 1 m/s 768 mmHg 59%
    12:00 +20°C° 0 mm 1 m/s 768 mmHg 56%
    13:00 +20°C° 0 mm 1 m/s 768 mmHg 56%
    14:00 +20°C° 0 mm 1 m/s 768 mmHg 56%
    15:00 +19°C° 0 mm 2 m/s 767 mmHg 56%
    16:00 +19°C° 0 mm 2 m/s 768 mmHg 61%
    17:00 +19°C° 0 mm 2 m/s 768 mmHg 65%
    18:00 +18°C° 0 mm 2 m/s 768 mmHg 70%
    19:00 +17°C° 0 mm 2 m/s 768 mmHg 75%
    20:00 +15°C° 0 mm 2 m/s 768 mmHg 80%
    21:00 +13°C° 0 mm 2 m/s 769 mmHg 86%
    22:00 +13°C° 0 mm 2 m/s 769 mmHg 87%
    23:00 +12°C° 0 mm 1 m/s 769 mmHg 87%
    Arată mai mult